Zurück zum Katalog

CZ-6A DEB

AktivSSO
NORAD 55875·DEBRIS·🇨🇳 China

Gestartet Nov 11, 2022 von Taiyuan Satellite Launch Center

Loading…

Nächste Überflüge (nächste 24 Stunden)

TLE

AktuellSource: Space-Track

Epoche: Sep 14, 2026, 11:27 UTC

1 55875U 22151ZX  26257.47770127  .00001889  00000-0  89621-3 0  9993
2 55875  98.8237 266.2890 0043538  59.1077 301.4369 14.20234653186162

Verfolge CZ-6A DEB in Echtzeit mit AllMySat

Download on the App Store